Regional Weather Roundup
Issued by NWS

Home | Current Version | Previous Version | Graphics & Text | Print | Product List | Glossary On
Versions: 1 2 3 4 5 6 7 8 9 10 11 12 13 14 15 16 17 18 19 20 21 22 23 24 25 26 27 28 29 30 31 32 33 34 35 36 37 38 39 40 41 42 43 44 45 46 47 48 49 50
341
ASUS44 KJAN 160210
RWRMS

MISSISSIPPI HOURLY WEATHER ROUNDUP
NATIONAL WEATHER SERVICE JACKSON MS
900 PM CDT TUE APR 15 2014

NOTE: "FAIR: INDICATES FEW OR NO CLOUDS BELOW 12,000 FEET WITH NO
SIGNIFICANT WEATHER AND/OR OBSTRUCTIONS TO VISIBILITY.

MSZ001>002-007>008-010>013-018>021-025>028-034>036-160300-
NORTHWEST MISSISSIPPI

CITY           SKY/WX    TMP DP  RH WIND       PRES   REMARKS
CLARKSDALE       N/A     45  32  61 CALM      30.26R
CLEVELAND      FAIR      45  36  71 CALM      30.25R
GREENWOOD      CLEAR     44  31  60 NW3       30.24R
GREENVILLE     CLEAR     46  35  65 NE3       30.24R
GRENADA        FAIR      39  30  70 N3        30.25R
OLIVE BRANCH   CLEAR     39  27  60 CALM      30.23R
OXFORD         FAIR      39  25  56 CALM      30.25R
TUNICA         CLEAR     43  32  65 CALM      30.25R
$$

MSZ003>006-009-014>017-022>024-029>033-037>039-160300-
NORTHEAST MISSISSIPPI

CITY           SKY/WX    TMP DP  RH WIND       PRES   REMARKS
BELMONT        FAIR      42  25  50 CALM      30.19R
COLUMBUS AFB   CLEAR     42  30  62 NW7       30.22R
CORINTH        FAIR      41  25  52 NW5       30.21R
GOLDN TRIANGLE CLEAR     45  27  49 NW5       30.24R
STARKVILLE     FAIR      41  32  70 CALM      30.22R
TUPELO         CLEAR     43  27  53 NW5       30.21R
$$

MSZ040-058-160300-
CENTRAL MISSISSIPPI

CITY           SKY/WX    TMP DP  RH WIND       PRES   REMARKS
JACKSON INTL   CLEAR     45  32  60 NW6       30.22R
JACKSON HAWKNS CLEAR     45  31  58 CALM      30.22R
MERIDIAN KEY   CLEAR     43  36  76 CALM      30.20R
MERIDIAN NAS   CLEAR     44  32  62 NW5       30.20R
RAYMOND        FAIR      43  39  87 CALM      30.23R
VICKSBURG      CLEAR     48  33  56 N8        30.24R
$$

MSZ059>079-160300-
SOUTH MISSISSIPPI

CITY           SKY/WX    TMP DP  RH WIND       PRES   REMARKS
BROOKHAVEN     FAIR      43  34  70 N3        30.22R
COLUMBIA       FAIR      45  34  65 MISG      30.19R
HATTIESBURG    CLEAR     49  34  56 N5        30.19R
MCCOMB         CLEAR     46  31  55 N6        30.20R
NATCHEZ          N/A     45  34  65 CALM      30.21S
PINE BELT      CLEAR     45  32  61 NW7       30.19R
$$

MSZ080>082-160300-
COASTAL MISSISSIPPI

CITY           SKY/WX    TMP DP  RH WIND       PRES   REMARKS
BAY ST LOUIS   CLEAR     48  37  66 CALM      30.15R
BILOXI         PTCLDY    53  32  45 N10       30.15R
PASCAGOULA     PTCLDY    50  37  61 N5        30.15R
GULFPORT       PTCLDY    54  31  41 N7        30.15R
$$



USA.gov is the U.S. government's official web portal to all federal, state and local government web resources and services.